{"data":{"norad_id":20580,"intl_designator":"1990-037B","name":"HST","alt_names":[],"object_type":"PAYLOAD","status":"ACTIVE","operator":null,"country":"US","launch_date":"1990-04-24","launch_site_code":"AFETR","launch_vehicle":null,"mission":null,"orbit_class":"UNKNOWN","rcs_meters":28.0799,"size_class":null,"mass_kg":null,"dimensions":null,"purposes":["science"],"wikipedia_slug":null,"has_3d_model":false,"image_url":null,"decayed_at":null,"tle_current":{"epoch":"2026-09-20T00:54:31.510944Z","epoch_age_seconds":52022,"freshness":"FRESH","line1":"1 20580U 90037B   26263.03786471  .00004678  00000+0  14109-3 0  9991","line2":"2 20580  28.4728 151.8229 0001904 113.7893 246.2903 15.31699045803125","mean_motion":15.31699045,"eccentricity":0.0001904,"inclination_deg":28.4728,"raan_deg":151.8229,"arg_perigee_deg":113.7893,"mean_anomaly_deg":246.2903,"bstar":0.00014109,"rev_number":80312,"period_min":94.013246577431,"perigee_km":469.43881531051,"apogee_km":472.04686875435,"semimajor_km":6848.8798420324,"source":"CELESTRAK","updated_at":"2026-09-20T09:00:47.138983Z"}}}